SL-3 R/B

基本信息
目录编号:
13819
目录名称:
SL-3 R/B
国际标识:
1983-010B
轨道中心:
EARTH
物体状态:
在轨
发射日期:
1983-02-16 UTC
国别:
俄罗斯(独联体) (CIS)
轨道信息
数据来源: 国际轨道数据
星历时间: 2026-07-13T19:17:01+0800
半长轴: 6795.215km
偏心率: 0.0013447
轨道倾角: 81.099°
近地点辐角: 330.197°
升交点赤经: 207.577°
平近点角: 29.851°
近地点: 407.94km
远地点: 426.216km
周期: 92.910分钟
每日圈数: 15.498797
详细信息
发射场:
PKMTR
轨道高度:
LEO
数据来源:
AOE Integration Group
参考系:
TEME
时间系统:
UTC
历元类型:
SGP4
2D轨道图
3D轨道图
轨道高度分析图
轨道倾角分析图
轨道综合分析图
查看轨道综合分析图